Weather History for Whiteville, NC

Change the Weather History Date:

Thursday, March 8, 2012

  Actual Average (KLBT) Record (KLBT)
Temperature  
Mean Temperature 60 °F 52 °F  
Max Temperature 73 °F 64 °F 80 °F (2009)
Min Temperature 46 °F 40 °F 26 °F (2001)
Degree Days  
Heating Degree Days 6 13  
Month to date heating degree days 114  
Since 1 July heating degree days 2344  
Cooling Degree Days 0 0  
Month to date cooling degree days 0  
Year to date cooling degree days 3  
Growing Degree Days 10 (Base 50)    
Moisture  
Dew Point 52 °F    
Average Humidity 76    
Maximum Humidity 100    
Minimum Humidity 38    
Precipitation  
Precipitation 0.00 in 0.11 in 0.29 in (2005)
Month to date precipitation 0.90  
Year to date precipitation 6.77  
Sea Level Pressure  
Sea Level Pressure 30.37 in    
Wind  
Wind Speed 3 mph (South)    
Max Wind Speed 15 mph    
Max Gust Speed 29 mph    
Visibility 9 miles    
Events Rain    
T = Trace of Precipitation, MM = Missing Value Source: NWS Daily Summary

Daily Weather History Graph

Daily Weather History Graph

Search for Another Location

Airport:

Trip Planner

Search our weather history database for the weather conditions in past years. The results will help you decide how hot, cold, wet, or windy it might be!

Date:

Astronomy

Mar. 08, 2012 Rise Set
Actual Time 6:34 AM EST 6:17 PM EST
Civil Twilight 6:09 AM EST 6:42 PM EST
Nautical Twilight 5:40 AM EST 7:11 PM EST
Astronomical Twilight 5:10 AM EST 7:40 PM EST
Moon 6:58 PM EST (3/8) 6:20 AM EST (3/8)
Length of Visible Light 12h 33m
Length of Day
11h 43m
Full, 100% of the Moon is Illuminated
Mar 8
Full
Mar 14
Last Quarter
Mar 22
New
Mar 30
First Quarter
Apr 6
Full

Hourly Weather History & Observations

Time (EST) Temp. Dew Point Humidity Pressure Visibility Wind Dir Wind Speed Gust Speed Precip Events Conditions
12:15 AM 55.4 °F 51.8 °F 88% 30.47 in 10.0 mi Calm Calm - N/A   Clear
12:35 AM 53.6 °F 51.8 °F 94% 30.47 in 10.0 mi Calm Calm - N/A   Clear
12:55 AM 51.8 °F 50.0 °F 94% 30.46 in 10.0 mi Calm Calm - N/A   Clear
1:15 AM 50.0 °F 50.0 °F 100% 30.46 in 10.0 mi Calm Calm - N/A   Clear
1:35 AM 50.0 °F 50.0 °F 100% 30.45 in 7.0 mi Calm Calm - N/A   Clear
1:55 AM 50.0 °F 50.0 °F 100% 30.45 in 5.0 mi Calm Calm - N/A   Clear
2:15 AM 50.0 °F 50.0 °F 100% 30.44 in 10.0 mi Calm Calm - N/A   Scattered Clouds
2:35 AM 50.0 °F 48.2 °F 94% 30.44 in 2.0 mi Calm Calm - N/A   Mist
2:55 AM 48.2 °F 48.2 °F 100% 30.43 in 7.0 mi Calm Calm - N/A   Scattered Clouds
3:15 AM 48.2 °F 46.4 °F 93% 30.42 in 5.0 mi Calm Calm - N/A   Scattered Clouds
3:35 AM 46.4 °F 46.4 °F 100% 30.40 in 3.0 mi Calm Calm - N/A   Mist
3:55 AM 46.4 °F 46.4 °F 100% 30.40 in 5.0 mi Calm Calm - N/A   Scattered Clouds
4:15 AM 48.2 °F 46.4 °F 93% 30.40 in 10.0 mi Calm Calm - N/A   Mostly Cloudy
4:35 AM 50.0 °F 48.2 °F 94% 30.40 in 7.0 mi Calm Calm - N/A   Mostly Cloudy
4:55 AM 50.0 °F 48.2 °F 94% 30.41 in 10.0 mi Calm Calm - N/A   Mostly Cloudy
5:15 AM 50.0 °F 50.0 °F 100% 30.42 in 10.0 mi Calm Calm - N/A   Mostly Cloudy
5:35 AM 50.0 °F 50.0 °F 100% 30.42 in 10.0 mi Calm Calm - N/A   Mostly Cloudy
5:55 AM 51.8 °F 50.0 °F 94% 30.42 in 10.0 mi Calm Calm - N/A   Scattered Clouds
6:15 AM 51.8 °F 50.0 °F 94% 30.43 in 10.0 mi Calm Calm - N/A   Scattered Clouds
6:35 AM 50.0 °F 50.0 °F 100% 30.43 in 10.0 mi Calm Calm - N/A   Scattered Clouds
6:55 AM 51.8 °F 50.0 °F 94% 30.43 in 10.0 mi Calm Calm - N/A   Scattered Clouds
7:15 AM 50.0 °F 50.0 °F 100% 30.42 in 7.0 mi Calm Calm - N/A   Scattered Clouds
7:35 AM 51.8 °F 51.8 °F 100% 30.42 in 7.0 mi Calm Calm - N/A   Scattered Clouds
7:55 AM 55.4 °F 53.6 °F 94% 30.43 in 10.0 mi Calm Calm - N/A   Scattered Clouds
8:15 AM 57.2 °F 55.4 °F 94% 30.43 in 10.0 mi Calm Calm - N/A   Clear
8:35 AM 60.8 °F 55.4 °F 82% 30.42 in 10.0 mi ESE 3.5 mph - N/A   Clear
8:55 AM 62.6 °F 55.4 °F 77% 30.42 in 10.0 mi SE 3.5 mph - N/A   Clear
9:15 AM 64.4 °F 55.4 °F 73% 30.41 in 10.0 mi SE 5.8 mph - N/A   Clear
9:35 AM 68.0 °F 55.4 °F 64% 30.41 in 10.0 mi SSE 8.1 mph - N/A   Clear
9:55 AM 68.0 °F 53.6 °F 60% 30.40 in 10.0 mi South 9.2 mph - N/A   Clear
10:15 AM 69.8 °F 51.8 °F 53% 30.40 in 10.0 mi SSE 10.4 mph 16.1 mph N/A   Clear
10:35 AM 69.8 °F 51.8 °F 53% 30.39 in 10.0 mi South 10.4 mph - N/A   Clear
10:55 AM 71.6 °F 51.8 °F 50% 30.38 in 10.0 mi South 10.4 mph - N/A   Clear
11:15 AM 71.6 °F 48.2 °F 43% 30.37 in 10.0 mi SSE 11.5 mph 20.7 mph N/A   Clear
11:35 AM 73.4 °F 46.4 °F 38% 30.36 in 10.0 mi South 12.7 mph 19.6 mph N/A   Scattered Clouds
11:55 AM 73.4 °F 46.4 °F 38% 30.36 in 10.0 mi South 13.8 mph 23.0 mph N/A   Scattered Clouds
12:15 PM 73.4 °F 46.4 °F 38% 30.35 in 10.0 mi South 15.0 mph 20.7 mph N/A   Clear
12:35 PM 73.4 °F 46.4 °F 38% 30.34 in 10.0 mi South 15.0 mph 21.9 mph N/A   Scattered Clouds
12:55 PM 73.4 °F 48.2 °F 41% 30.32 in 10.0 mi South 15.0 mph 20.7 mph N/A   Scattered Clouds
1:15 PM 73.4 °F 48.2 °F 41% 30.31 in 10.0 mi South 11.5 mph 19.6 mph N/A   Scattered Clouds
1:35 PM 73.4 °F 50.0 °F 44% 30.30 in 10.0 mi SSE 12.7 mph 17.3 mph N/A   Scattered Clouds
1:55 PM 71.6 °F 50.0 °F 46% 30.29 in 10.0 mi South 12.7 mph 20.7 mph N/A   Scattered Clouds
2:15 PM 71.6 °F 50.0 °F 46% 30.29 in 10.0 mi South 11.5 mph 19.6 mph N/A   Scattered Clouds
2:35 PM 71.6 °F 50.0 °F 46% 30.28 in 10.0 mi SSW 11.5 mph 20.7 mph N/A   Scattered Clouds
2:55 PM 71.6 °F 50.0 °F 46% 30.29 in 10.0 mi South 12.7 mph 18.4 mph N/A   Scattered Clouds
3:15 PM 71.6 °F 51.8 °F 50% 30.27 in 10.0 mi South 9.2 mph - N/A   Scattered Clouds
3:35 PM 69.8 °F 51.8 °F 53% 30.28 in 10.0 mi South 15.0 mph 19.6 mph N/A   Scattered Clouds
3:55 PM 68.0 °F 51.8 °F 56% 30.28 in 10.0 mi SSW 9.2 mph - N/A   Scattered Clouds
4:15 PM 69.8 °F 51.8 °F 53% 30.27 in 10.0 mi South 8.1 mph - N/A   Scattered Clouds
4:35 PM 64.4 °F 57.2 °F 77% 30.29 in 4.0 mi SSW 15.0 mph 28.8 mph N/A Rain Heavy Rain
4:55 PM 62.6 °F 59.0 °F 88% 30.28 in 4.0 mi South 9.2 mph - N/A   Drizzle
5:15 PM 62.6 °F 60.8 °F 94% 30.26 in 10.0 mi SSE 5.8 mph - N/A   Mostly Cloudy
5:35 PM 62.6 °F 59.0 °F 88% 30.26 in 10.0 mi South 4.6 mph - N/A   Scattered Clouds
5:55 PM 62.6 °F 59.0 °F 88% 30.25 in 10.0 mi South 4.6 mph - N/A   Scattered Clouds
6:15 PM 62.6 °F 59.0 °F 88% 30.24 in 10.0 mi SSE 3.5 mph - N/A   Scattered Clouds
6:35 PM 62.6 °F 59.0 °F 88% 30.24 in 10.0 mi South 4.6 mph - N/A   Clear
6:55 PM 62.6 °F 59.0 °F 88% 30.24 in 10.0 mi South 4.6 mph - N/A   Clear
7:15 PM 62.6 °F 59.0 °F 88% 30.24 in 10.0 mi SSE 5.8 mph - N/A   Scattered Clouds
7:35 PM 62.6 °F 59.0 °F 88% 30.24 in 10.0 mi SSE 4.6 mph - N/A   Clear
7:55 PM 62.6 °F 59.0 °F 88% 30.23 in 10.0 mi SSE 6.9 mph - N/A   Clear
8:15 PM 60.8 °F 57.2 °F 88% 30.23 in 10.0 mi SSE 8.1 mph - N/A   Clear
8:35 PM 60.8 °F 59.0 °F 94% 30.22 in 10.0 mi SSE 8.1 mph - N/A   Clear
8:55 PM 60.8 °F 59.0 °F 94% 30.22 in 10.0 mi SSE 6.9 mph - N/A   Clear
9:15 PM 60.8 °F 59.0 °F 94% 30.21 in 10.0 mi SSE 4.6 mph - N/A   Clear
9:35 PM 59.0 °F 59.0 °F 100% 30.21 in 10.0 mi South 3.5 mph - N/A   Clear
9:55 PM 59.0 °F 57.2 °F 94% 30.21 in 10.0 mi SSE 4.6 mph - N/A   Clear
10:15 PM 59.0 °F 59.0 °F 100% 30.20 in 10.0 mi South 4.6 mph - N/A   Clear
10:35 PM 59.0 °F 57.2 °F 94% 30.21 in 10.0 mi South 3.5 mph - N/A   Clear
10:55 PM 59.0 °F 57.2 °F 94% 30.20 in 10.0 mi South 3.5 mph - N/A   Clear
11:15 PM 59.0 °F 57.2 °F 94% 30.19 in 10.0 mi South 4.6 mph - N/A   Clear
11:35 PM 59.0 °F 57.2 °F 94% 30.19 in 10.0 mi South 3.5 mph - N/A   Clear
11:55 PM 59.0 °F 57.2 °F 94% 30.18 in 10.0 mi South 3.5 mph - N/A   Clear